| time (UTC) | temp F | wind direction | speed MPH | gust MPH | rain 1hr in | rain 24hr in | rain mn in | humidity % | barometer mb |
| 20260503213928 | 67 | 0 | 0.0 | 0.0 | 0.00 | 0.01 | 0.01 | 51 | 1014.6 |
| 20260503212918 | 66 | 1 | 0.0 | 0.0 | 0.00 | 0.01 | 0.01 | 50 | 1014.5 |
| 20260503211908 | 66 | 1 | 0.0 | 0.0 | 0.00 | 0.01 | 0.01 | 52 | 1014.5 |
| 20260503210858 | 66 | 1 | 0.0 | 0.0 | 0.00 | 0.01 | 0.01 | 53 | 1014.5 |
| 20260503205848 | 66 | 1 | 0.0 | 0.0 | 0.00 | 0.01 | 0.01 | 52 | 1014.4 |
| 20260503204838 | 66 | 1 | 0.0 | 0.0 | 0.00 | 0.01 | 0.01 | 52 | 1014.5 |
| 20260503203828 | 66 | 1 | 0.0 | 0.0 | 0.00 | 0.01 | 0.01 | 55 | 1014.6 |
| 20260503202818 | 66 | 1 | 0.0 | 0.0 | 0.00 | 0.01 | 0.01 | 57 | 1014.6 |
| 20260503201808 | 65 | 1 | 0.0 | 0.0 | 0.00 | 0.01 | 0.01 | 58 | 1014.7 |
| 20260503200758 | 65 | 1 | 0.0 | 0.0 | 0.00 | 0.01 | 0.01 | 61 | 1014.7 |
| 20260503195748 | 65 | 1 | 0.0 | 0.0 | 0.00 | 0.01 | 0.01 | 62 | 1014.7 |
| 20260503194738 | 65 | 1 | 0.0 | 0.0 | 0.00 | 0.01 | 0.01 | 62 | 1014.8 |
| 20260503193728 | 65 | 1 | 0.0 | 0.0 | 0.00 | 0.01 | 0.01 | 62 | 1014.7 |
| 20260503192718 | 65 | 1 | 0.0 | 0.0 | 0.00 | 0.01 | 0.01 | 62 | 1014.6 |
| 20260503191708 | 65 | 1 | 0.0 | 0.0 | 0.00 | 0.01 | 0.01 | 62 | 1014.7 |
| 20260503190658 | 65 | 1 | 0.0 | 0.0 | 0.00 | 0.01 | 0.01 | 61 | 1014.6 |
| 20260503185648 | 65 | 0 | 0.0 | 0.0 | 0.00 | 0.01 | 0.01 | 61 | 1014.5 |
| 20260503184638 | 65 | 1 | 0.0 | 0.0 | 0.00 | 0.01 | 0.01 | 62 | 1014.5 |
| 20260503183628 | 64 | 1 | 0.0 | 0.0 | 0.00 | 0.01 | 0.01 | 61 | 1014.4 |
| 20260503182618 | 64 | 1 | 0.0 | 0.0 | 0.00 | 0.01 | 0.01 | 59 | 1014.2 |
| 20260503181608 | 64 | 1 | 0.0 | 0.0 | 0.00 | 0.01 | 0.01 | 62 | 1014.2 |
| 20260503180558 | 63 | 1 | 0.0 | 0.0 | 0.00 | 0.01 | 0.01 | 62 | 1014.1 |
| 20260503175548 | 62 | 1 | 0.0 | 0.0 | 0.00 | 0.01 | 0.01 | 63 | 1014.2 |
| 20260503174538 | 62 | 1 | 0.0 | 0.0 | 0.00 | 0.01 | 0.01 | 65 | 1014.3 |
| 20260503173528 | 62 | 1 | 0.0 | 0.0 | 0.00 | 0.01 | 0.01 | 65 | 1014.2 |
| 20260503172518 | 62 | 1 | 0.0 | 0.0 | 0.00 | 0.01 | 0.01 | 65 | 1014.1 |
| 20260503171508 | 61 | 0 | 0.0 | 0.0 | 0.00 | 0.01 | 0.01 | 64 | 1014.0 |
| 20260503170458 | 61 | 1 | 0.0 | 0.0 | 0.00 | 0.01 | 0.01 | 63 | 1014.0 |
| 20260503150258 | 56 | 1 | 0.0 | 0.0 | 0.00 | 0.00 | 0.00 | 78 | 1013.5 |
| 20260503140158 | 55 | 3 | 0.0 | 0.0 | 0.00 | 0.00 | 0.00 | 75 | 1012.5 |
| 20260503131108 | 55 | 2 | 0.0 | 0.0 | 0.00 | 0.00 | 0.00 | 74 | 1012.2 |
| 20260503081618 | 57 | 2 | 0.0 | 0.0 | 0.00 | 0.00 | 0.00 | 68 | 1012.6 |
| 20260503080608 | 57 | 2 | 0.0 | 0.0 | 0.00 | 0.00 | 0.00 | 67 | 1012.6 |
| 20260503072528 | 57 | 3 | 0.0 | 0.0 | 0.00 | 0.00 | 0.00 | 66 | 1012.6 |
| 20260503071518 | 57 | 2 | 0.0 | 0.0 | 0.00 | 0.00 | 0.00 | 66 | 1012.6 |
| 20260503070508 | 58 | 3 | 0.0 | 0.0 | 0.00 | 0.00 | 0.00 | 66 | 1012.6 |
| 20260503054346 | 59 | 3 | 0.0 | 0.0 | 0.00 | 0.00 | 0.00 | 64 | 1012.9 |
| 20260503053336 | 59 | 2 | 0.0 | 0.0 | 0.00 | 0.00 | 0.00 | 64 | 1013.0 |
| 20260503052326 | 59 | 3 | 0.0 | 0.0 | 0.00 | 0.00 | 0.00 | 64 | 1013.0 |
| 20260503051316 | 59 | 2 | 0.0 | 0.0 | 0.00 | 0.00 | 0.00 | 64 | 1013.0 |
| 20260503050306 | 60 | 3 | 0.0 | 0.0 | 0.00 | 0.00 | 0.00 | 65 | 1013.0 |
| 20260503045256 | 60 | 0 | 0.0 | 0.0 | 0.00 | 0.00 | 0.00 | 65 | 1013.0 |
| 20260503044246 | 60 | 0 | 0.0 | 0.0 | 0.00 | 0.00 | 0.00 | 65 | 1012.9 |
| 20260503043236 | 60 | 0 | 0.0 | 0.0 | 0.00 | 0.00 | 0.00 | 65 | 1012.8 |
| 20260503042226 | 60 | 0 | 0.0 | 0.0 | 0.00 | 0.00 | 0.00 | 65 | 1012.7 |
| 20260503041216 | 60 | 2 | 0.0 | 0.0 | 0.00 | 0.00 | 0.00 | 65 | 1012.6 |
| 20260503040206 | 60 | 3 | 0.0 | 0.0 | 0.00 | 0.00 | 0.00 | 64 | 1012.4 |
| 20260503035156 | 60 | 3 | 0.0 | 0.0 | 0.00 | 0.00 | 0.00 | 64 | 1012.3 |
| 20260503034146 | 60 | 3 | 0.0 | 0.0 | 0.00 | 0.00 | 0.00 | 64 | 1012.2 |
| 20260503033136 | 61 | 2 | 0.0 | 0.0 | 0.00 | 0.00 | 0.00 | 63 | 1012.1 |
| 20260503032126 | 61 | 0 | 0.0 | 0.0 | 0.00 | 0.00 | 0.00 | 63 | 1012.0 |
| 20260503031116 | 61 | 0 | 0.0 | 0.0 | 0.00 | 0.00 | 0.00 | 62 | 1011.9 |
| 20260503030106 | 62 | 0 | 0.0 | 0.0 | 0.00 | 0.00 | 0.00 | 61 | 1011.9 |
| 20260503025056 | 62 | 0 | 0.0 | 0.0 | 0.00 | 0.00 | 0.00 | 60 | 1011.9 |
| 20260503024046 | 63 | 4 | 0.0 | 0.0 | 0.00 | 0.00 | 0.00 | 60 | 1011.8 |
| 20260503023036 | 64 | 0 | 0.0 | 0.0 | 0.00 | 0.00 | 0.00 | 59 | 1011.7 |
| 20260503022026 | 64 | 4 | 0.0 | 0.0 | 0.00 | 0.00 | 0.00 | 58 | 1011.8 |
| 20260503021016 | 65 | 0 | 0.0 | 0.0 | 0.00 | 0.00 | 0.00 | 58 | 1011.7 |
| 20260503020006 | 65 | 3 | 0.0 | 0.0 | 0.00 | 0.00 | 0.00 | 57 | 1011.7 |
| 20260503014956 | 65 | 2 | 0.0 | 0.0 | 0.00 | 0.00 | 0.00 | 58 | 1011.8 |
| 20260503013946 | 66 | 2 | 0.0 | 0.0 | 0.00 | 0.00 | 0.00 | 57 | 1011.8 |
| 20260503012936 | 66 | 2 | 0.0 | 0.0 | 0.00 | 0.00 | 0.00 | 56 | 1011.9 |
| 20260503011926 | 66 | 1 | 0.0 | 0.0 | 0.00 | 0.00 | 0.00 | 56 | 1012.0 |
| 20260503010916 | 67 | 1 | 0.0 | 0.0 | 0.00 | 0.00 | 0.00 | 56 | 1011.9 |
| 20260503005906 | 67 | 1 | 0.0 | 0.0 | 0.00 | 0.00 | 0.00 | 56 | 1012.0 |
| 20260503004856 | 67 | 1 | 0.0 | 0.0 | 0.00 | 0.00 | 0.00 | 55 | 1012.0 |
| 20260503003846 | 68 | 2 | 0.0 | 0.0 | 0.00 | 0.00 | 0.00 | 54 | 1012.0 |
| 20260503002836 | 68 | 1 | 0.0 | 0.0 | 0.00 | 0.00 | 0.00 | 54 | 1012.0 |
| 20260503001826 | 68 | 1 | 0.0 | 0.0 | 0.00 | 0.00 | 0.00 | 54 | 1012.0 |
| 20260503000816 | 68 | 1 | 0.0 | 0.0 | 0.00 | 0.00 | 0.00 | 53 | 1012.1 |
| 20260502235806 | 69 | 1 | 0.0 | 0.0 | 0.00 | 0.00 | 0.00 | 53 | 1012.2 |
| 20260502234756 | 69 | 1 | 0.0 | 0.0 | 0.00 | 0.00 | 0.00 | 54 | 1012.3 |
| 20260502233746 | 69 | 1 | 0.0 | 0.0 | 0.00 | 0.00 | 0.00 | 53 | 1012.4 |
| 20260502232736 | 69 | 1 | 0.0 | 0.0 | 0.00 | 0.00 | 0.00 | 54 | 1012.4 |
| 20260502231726 | 69 | 1 | 0.0 | 0.0 | 0.00 | 0.00 | 0.00 | 54 | 1012.5 |
| 20260502230716 | 69 | 1 | 0.0 | 0.0 | 0.00 | 0.00 | 0.00 | 54 | 1012.7 |
| 20260502225706 | 69 | 2 | 0.0 | 0.0 | 0.00 | 0.00 | 0.00 | 55 | 1012.9 |
| 20260502224656 | 68 | 1 | 0.0 | 0.0 | 0.00 | 0.00 | 0.00 | 55 | 1013.1 |
| 20260502223646 | 68 | 1 | 0.0 | 0.0 | 0.00 | 0.00 | 0.00 | 58 | 1013.2 |
| 20260502222636 | 67 | 1 | 0.0 | 0.0 | 0.00 | 0.00 | 0.00 | 57 | 1013.4 |
| 20260502221626 | 67 | 1 | 0.0 | 0.0 | 0.00 | 0.00 | 0.00 | 59 | 1013.5 |
| 20260502220616 | 67 | 2 | 0.0 | 0.0 | 0.00 | 0.00 | 0.00 | 58 | 1013.8 |
| 20260502215606 | 66 | 1 | 0.0 | 0.0 | 0.00 | 0.00 | 0.00 | 59 | 1013.8 |
| 20260502214556 | 66 | 1 | 0.0 | 0.0 | 0.00 | 0.00 | 0.00 | 61 | 1014.0 |